AUA21 LOWW-VRMM

Flight info

Callsign AUA21
Flight time N/A
Altitude 33000
Route ARSIN DCT NALOX DCT BABIT DCT IBISI DCT RUGAS DCT KOROS DCT PAXIS Y707 OBRAN L321 REXUM M872 SEMRU/N0481F350 M872 PMA Y214 RAPMA DCT DEGNO DCT ULONO DCT GOBRO L425 ITUVO/N0481F370 L425 ASPUX T208 BOLUR L894 ELBET ELBET1A
Aircraft B763/H-SDE3FGHIM3RWXY/LB1

Departure

Time N/A
Airport Vienna International Airport (LOWW)

Arrival

Time 2026-05-07 06:51
Airport Velana International Airport (VRMM)
Time Latitude Longitude Altitude Speed Heading
2026-05-07 05:15 12.54153 66.89419 36906 ft 452 kts 141°
2026-05-07 05:16 12.49229 66.93465 36903 ft 452 kts 141°
2026-05-07 05:16 12.44327 66.97490 36896 ft 453 kts 141°
2026-05-07 05:17 12.39425 67.01514 36892 ft 452 kts 141°
2026-05-07 05:17 12.34485 67.05566 36892 ft 453 kts 141°
2026-05-07 05:18 12.29580 67.09589 36888 ft 452 kts 141°
2026-05-07 05:18 12.24655 67.13625 36888 ft 452 kts 141°
2026-05-07 05:19 12.19748 67.17645 36888 ft 452 kts 141°
2026-05-07 05:19 12.14835 67.21668 36886 ft 452 kts 141°
2026-05-07 05:20 12.09918 67.25693 36884 ft 452 kts 141°
2026-05-07 05:20 12.04989 67.29724 36886 ft 452 kts 141°
2026-05-07 05:21 11.97619 67.35750 36893 ft 452 kts 141°
2026-05-07 05:22 11.92715 67.39758 36897 ft 452 kts 141°
2026-05-07 05:22 11.87789 67.43782 36897 ft 453 kts 141°
2026-05-07 05:23 11.82874 67.47795 36899 ft 453 kts 141°
2026-05-07 05:23 11.77935 67.51826 36899 ft 452 kts 141°
2026-05-07 05:24 11.73026 67.55831 36904 ft 452 kts 141°
2026-05-07 05:24 11.68103 67.59845 36902 ft 451 kts 141°
2026-05-07 05:25 11.63182 67.63856 36905 ft 452 kts 141°
2026-05-07 05:25 11.58245 67.67877 36907 ft 452 kts 141°
2026-05-07 05:26 11.53343 67.71869 36905 ft 452 kts 141°
2026-05-07 05:26 11.48409 67.75885 36908 ft 453 kts 141°
2026-05-07 05:27 11.43495 67.79882 36907 ft 452 kts 141°
2026-05-07 05:27 11.38570 67.83887 36907 ft 453 kts 141°
2026-05-07 05:28 11.33618 67.87911 36902 ft 453 kts 141°
2026-05-07 05:28 11.28710 67.91899 36904 ft 451 kts 141°
2026-05-07 05:29 11.23806 67.95881 36906 ft 452 kts 141°
2026-05-07 05:29 11.18876 67.99882 36903 ft 453 kts 141°
2026-05-07 05:30 11.13935 68.03891 36903 ft 453 kts 141°
2026-05-07 05:30 11.08993 68.07898 36901 ft 451 kts 141°
2026-05-07 05:31 11.04087 68.11875 36904 ft 451 kts 141°
2026-05-07 05:31 10.99183 68.15848 36902 ft 451 kts 141°
2026-05-07 05:32 10.94266 68.19830 36904 ft 452 kts 141°
2026-05-07 05:32 10.89335 68.23823 36903 ft 451 kts 141°
2026-05-07 05:33 10.84422 68.27798 36899 ft 451 kts 141°
2026-05-07 05:33 10.79500 68.31778 36897 ft 450 kts 141°
2026-05-07 05:34 10.74602 68.35738 36901 ft 450 kts 141°
2026-05-07 05:34 10.69670 68.39724 36901 ft 450 kts 141°
2026-05-07 05:35 10.64748 68.43700 36897 ft 449 kts 141°
2026-05-07 05:35 10.59878 68.47632 36896 ft 451 kts 141°
2026-05-07 05:36 10.54948 68.51611 36893 ft 452 kts 141°
2026-05-07 05:36 10.50015 68.55591 36890 ft 449 kts 141°
2026-05-07 05:37 10.45134 68.59527 36890 ft 449 kts 141°
2026-05-07 05:37 10.40202 68.63502 36894 ft 450 kts 141°
2026-05-07 05:38 10.35295 68.67456 36891 ft 451 kts 141°
2026-05-07 05:38 10.30383 68.71412 36887 ft 449 kts 141°
2026-05-07 05:39 10.25462 68.75374 36892 ft 449 kts 141°
2026-05-07 05:39 10.20562 68.79317 36888 ft 449 kts 141°
2026-05-07 05:40 10.15684 68.83241 36888 ft 449 kts 142°
2026-05-07 05:40 10.10768 68.87194 36889 ft 449 kts 141°
2026-05-07 05:41 10.05866 68.91134 36890 ft 449 kts 142°
2026-05-07 05:41 10.00975 68.95064 36901 ft 449 kts 141°
2026-05-07 05:42 9.96039 68.99028 36903 ft 449 kts 141°
2026-05-07 05:42 9.91146 69.02956 36905 ft 448 kts 141°
2026-05-07 05:43 9.86256 69.06881 36906 ft 448 kts 141°
2026-05-07 05:43 9.81343 69.10822 36901 ft 448 kts 141°
2026-05-07 05:44 9.76447 69.14748 36906 ft 449 kts 141°
2026-05-07 05:44 9.71557 69.18666 36905 ft 449 kts 141°
2026-05-07 05:45 9.66652 69.22592 36907 ft 450 kts 141°
2026-05-07 05:45 9.61729 69.26531 36908 ft 449 kts 141°
2026-05-07 05:46 9.56819 69.30459 36901 ft 449 kts 141°
2026-05-07 05:46 9.51911 69.34383 36898 ft 449 kts 141°
2026-05-07 05:47 9.47003 69.38306 36898 ft 449 kts 141°
2026-05-07 05:47 9.42072 69.42246 36894 ft 449 kts 141°
2026-05-07 05:48 9.37151 69.46177 36895 ft 449 kts 141°
2026-05-07 05:48 9.32267 69.50075 36891 ft 448 kts 141°
2026-05-07 05:49 9.27367 69.53987 36894 ft 449 kts 141°
2026-05-07 05:49 9.22440 69.57917 36891 ft 448 kts 141°
2026-05-07 05:50 9.17549 69.61817 36887 ft 448 kts 141°
2026-05-07 05:50 9.12617 69.65750 36890 ft 448 kts 141°
2026-05-07 05:51 9.07727 69.69647 36893 ft 449 kts 141°
2026-05-07 05:51 9.02815 69.73560 36886 ft 448 kts 141°
2026-05-07 05:52 8.97881 69.77489 36890 ft 449 kts 141°
2026-05-07 05:52 8.92974 69.81395 36885 ft 448 kts 141°
2026-05-07 05:53 8.88073 69.85296 36886 ft 448 kts 141°
2026-05-07 05:53 8.83157 69.89207 36888 ft 448 kts 141°
2026-05-07 05:54 8.78247 69.93111 36887 ft 449 kts 141°
2026-05-07 05:54 8.73336 69.97015 36885 ft 448 kts 141°
2026-05-07 05:55 8.68431 70.00912 36886 ft 448 kts 141°
2026-05-07 05:55 8.63543 70.04796 36885 ft 447 kts 141°
2026-05-07 05:56 8.58642 70.08688 36884 ft 447 kts 141°
2026-05-07 05:56 8.53737 70.12583 36884 ft 449 kts 141°
2026-05-07 05:57 8.48809 70.16493 36885 ft 450 kts 141°
2026-05-07 05:57 8.43865 70.20416 36881 ft 449 kts 141°
2026-05-07 05:58 8.38975 70.24294 36888 ft 448 kts 141°
2026-05-07 05:58 8.34063 70.28188 36898 ft 448 kts 140°
2026-05-07 05:59 8.29148 70.32084 36900 ft 447 kts 141°
2026-05-07 05:59 8.24235 70.35976 36903 ft 448 kts 141°
2026-05-07 06:00 8.19318 70.39871 36900 ft 448 kts 141°
2026-05-07 06:00 8.14416 70.43752 36900 ft 449 kts 141°
2026-05-07 06:01 8.09498 70.47644 36897 ft 449 kts 140°
2026-05-07 06:01 8.04578 70.51537 36892 ft 447 kts 140°
2026-05-07 06:02 7.99669 70.55421 36892 ft 448 kts 140°
2026-05-07 06:02 7.94753 70.59309 36889 ft 448 kts 140°
2026-05-07 06:03 7.89851 70.63184 36890 ft 446 kts 140°
2026-05-07 06:03 7.84972 70.67040 36905 ft 447 kts 140°
2026-05-07 06:04 7.80042 70.70934 36905 ft 446 kts 140°
2026-05-07 06:04 7.75144 70.74803 36908 ft 447 kts 140°
2026-05-07 06:05 7.70254 70.78664 36907 ft 446 kts 140°
2026-05-07 06:05 7.65368 70.82521 36904 ft 445 kts 140°
2026-05-07 06:06 7.60461 70.86393 36908 ft 446 kts 140°
2026-05-07 06:06 7.55554 70.90263 36904 ft 445 kts 140°
2026-05-07 06:07 7.50689 70.94100 36897 ft 445 kts 140°
2026-05-07 06:07 7.45779 70.97968 36892 ft 446 kts 140°
2026-05-07 06:08 7.40894 71.01812 36883 ft 444 kts 140°
2026-05-07 06:08 7.36017 71.05651 36885 ft 443 kts 140°
2026-05-07 06:09 7.31162 71.09471 36886 ft 443 kts 140°
2026-05-07 06:09 7.26281 71.13309 36884 ft 444 kts 140°
2026-05-07 06:10 7.21391 71.17155 36883 ft 445 kts 140°
2026-05-07 06:10 7.16501 71.20998 36879 ft 443 kts 140°
2026-05-07 06:11 7.11656 71.24806 36882 ft 441 kts 140°
2026-05-07 06:11 7.06791 71.28629 36884 ft 443 kts 140°
2026-05-07 06:12 7.01925 71.32450 36881 ft 445 kts 140°
2026-05-07 06:12 6.97011 71.36309 36878 ft 450 kts 140°
2026-05-07 06:13 6.92070 71.40186 36876 ft 446 kts 139°
2026-05-07 06:13 6.87176 71.44028 36867 ft 445 kts 139°
2026-05-07 06:14 6.82262 71.47884 36863 ft 446 kts 139°
2026-05-07 06:14 6.77363 71.51726 36868 ft 446 kts 140°
2026-05-07 06:15 6.72469 71.55565 36865 ft 446 kts 140°
2026-05-07 06:15 6.67572 71.59403 36851 ft 435 kts 140°
2026-05-07 06:15 6.65239 71.61230 36850 ft 421 kts 139°
2026-05-07 06:16 6.62941 71.63031 36855 ft 416 kts 139°
2026-05-07 06:16 6.58409 71.66585 36871 ft 426 kts 139°
2026-05-07 06:17 6.53662 71.70305 36868 ft 437 kts 140°
2026-05-07 06:17 6.48786 71.74123 36867 ft 446 kts 140°
2026-05-07 06:18 6.43881 71.77962 36863 ft 447 kts 140°
2026-05-07 06:18 6.38977 71.81801 36863 ft 446 kts 140°
2026-05-07 06:19 6.33692 71.85141 36868 ft 449 kts 148°
2026-05-07 06:19 6.28214 71.88236 36861 ft 450 kts 148°
2026-05-07 06:20 6.22718 71.91318 36863 ft 451 kts 148°
2026-05-07 06:20 6.17213 71.94400 36861 ft 450 kts 148°
2026-05-07 06:21 6.11750 71.97455 36868 ft 451 kts 148°
2026-05-07 06:21 6.06242 72.00532 36864 ft 450 kts 148°
2026-05-07 06:22 6.00762 72.03596 36864 ft 450 kts 148°
2026-05-07 06:22 5.92495 72.08212 36877 ft 452 kts 148°
2026-05-07 06:23 5.87158 72.11193 36878 ft 452 kts 148°
2026-05-07 06:23 5.81608 72.14288 36879 ft 452 kts 148°
2026-05-07 06:24 5.76080 72.17371 36879 ft 452 kts 148°
2026-05-07 06:24 5.70597 72.20428 36878 ft 450 kts 148°
2026-05-07 06:25 5.65083 72.23503 36882 ft 453 kts 148°
2026-05-07 06:25 5.59537 72.26594 36879 ft 453 kts 148°
2026-05-07 06:26 5.54017 72.29669 36870 ft 453 kts 148°
2026-05-07 06:26 5.48484 72.32752 36859 ft 454 kts 148°
2026-05-07 06:27 5.42962 72.35828 36858 ft 455 kts 148°
2026-05-07 06:27 5.37426 72.38909 36520 ft 451 kts 148°
2026-05-07 06:28 5.34651 72.40456 35720 ft 455 kts 148°
2026-05-07 06:28 5.31907 72.41984 34949 ft 457 kts 148°
2026-05-07 06:28 5.29098 72.43548 34058 ft 461 kts 148°
2026-05-07 06:28 5.26279 72.45116 33243 ft 462 kts 148°
2026-05-07 06:29 5.23453 72.46690 32406 ft 465 kts 148°
2026-05-07 06:29 5.20609 72.48272 31564 ft 469 kts 148°
2026-05-07 06:29 5.17751 72.49863 30785 ft 470 kts 149°
2026-05-07 06:29 5.14884 72.51457 30016 ft 471 kts 149°
2026-05-07 06:30 5.11970 72.53079 29197 ft 472 kts 149°
2026-05-07 06:30 5.09122 72.54662 28324 ft 475 kts 149°
2026-05-07 06:30 5.06209 72.56282 27760 ft 467 kts 149°
2026-05-07 06:30 5.03385 72.57853 27219 ft 460 kts 149°
2026-05-07 06:31 5.00583 72.59412 26698 ft 464 kts 150°
2026-05-07 06:31 4.97721 72.61002 26166 ft 471 kts 150°
2026-05-07 06:31 4.94817 72.62617 25605 ft 471 kts 150°
2026-05-07 06:31 4.91952 72.64210 25048 ft 467 kts 150°
2026-05-07 06:32 4.89113 72.65788 24498 ft 463 kts 150°
2026-05-07 06:32 4.86299 72.67352 23956 ft 460 kts 151°
2026-05-07 06:32 4.83476 72.68922 23415 ft 459 kts 151°
2026-05-07 06:32 4.80649 72.70493 22877 ft 458 kts 151°
2026-05-07 06:33 4.77873 72.72035 22346 ft 456 kts 151°
2026-05-07 06:33 4.75117 72.73566 21816 ft 453 kts 151°
2026-05-07 06:33 4.72344 72.75107 21281 ft 449 kts 152°
2026-05-07 06:33 4.69596 72.76633 20757 ft 445 kts 152°
2026-05-07 06:34 4.66900 72.78130 20239 ft 441 kts 152°
2026-05-07 06:34 4.64234 72.79611 19731 ft 439 kts 152°
2026-05-07 06:34 4.61536 72.81110 19218 ft 436 kts 152°
2026-05-07 06:34 4.58880 72.82584 18704 ft 433 kts 152°
2026-05-07 06:35 4.56244 72.84048 18198 ft 430 kts 152°
2026-05-07 06:35 4.53641 72.85493 17692 ft 426 kts 152°
2026-05-07 06:35 4.51045 72.86935 17195 ft 423 kts 152°
2026-05-07 06:35 4.48470 72.88364 16704 ft 418 kts 152°
2026-05-07 06:36 4.45933 72.89772 16217 ft 414 kts 151°
2026-05-07 06:36 4.43399 72.91179 15734 ft 411 kts 151°
2026-05-07 06:36 4.40871 72.92582 15251 ft 409 kts 151°
2026-05-07 06:36 4.38392 72.93958 14769 ft 405 kts 151°
2026-05-07 06:37 4.35955 72.95309 14288 ft 400 kts 151°
2026-05-07 06:37 4.33512 72.96665 13819 ft 398 kts 151°
2026-05-07 06:37 4.31071 72.98020 13335 ft 394 kts 151°
2026-05-07 06:37 4.28692 72.99340 12874 ft 391 kts 151°
2026-05-07 06:38 4.26300 73.00666 12405 ft 389 kts 151°
2026-05-07 06:38 4.23947 73.01971 11960 ft 386 kts 151°
2026-05-07 06:38 4.21612 73.03267 11578 ft 383 kts 151°
2026-05-07 06:38 4.19266 73.04568 11171 ft 383 kts 151°
2026-05-07 06:39 4.16921 73.05868 10716 ft 382 kts 151°
2026-05-07 06:39 4.14607 73.07151 10228 ft 377 kts 151°
2026-05-07 06:39 4.12333 73.08412 9834 ft 372 kts 150°
2026-05-07 06:39 4.10059 73.09673 9440 ft 371 kts 150°
2026-05-07 06:40 4.07803 73.10925 9063 ft 369 kts 151°
2026-05-07 06:40 4.05563 73.12167 9018 ft 356 kts 151°
2026-05-07 06:40 4.03396 73.13367 9019 ft 358 kts 151°
2026-05-07 06:40 4.01163 73.14606 9045 ft 373 kts 151°
2026-05-07 06:41 3.98946 73.15885 8946 ft 350 kts 144°
2026-05-07 06:41 3.97243 73.17477 8902 ft 322 kts 126°
2026-05-07 06:41 3.96154 73.19347 8878 ft 298 kts 111°
2026-05-07 06:41 3.95546 73.21291 8591 ft 290 kts 100°
2026-05-07 06:42 3.95239 73.23281 8291 ft 283 kts 95°
2026-05-07 06:42 3.95066 73.25226 7978 ft 283 kts 92°
2026-05-07 06:42 3.94970 73.27210 7670 ft 283 kts 90°
2026-05-07 06:42 3.94919 73.29164 7369 ft 282 kts 89°
2026-05-07 06:43 3.94895 73.31120 7089 ft 280 kts 89°
2026-05-07 06:43 3.94885 73.33067 6804 ft 279 kts 88°
2026-05-07 06:43 3.94882 73.35023 6542 ft 282 kts 89°
2026-05-07 06:43 3.94883 73.37000 6262 ft 280 kts 88°
2026-05-07 06:44 3.94885 73.38930 6018 ft 275 kts 88°
2026-05-07 06:44 3.94887 73.40778 5938 ft 259 kts 88°
2026-05-07 06:44 3.94889 73.42600 5484 ft 261 kts 88°
2026-05-07 06:44 3.94890 73.44397 5123 ft 258 kts 88°
2026-05-07 06:45 3.94892 73.46181 4828 ft 253 kts 88°
2026-05-07 06:45 3.94893 73.47933 4615 ft 248 kts 88°
2026-05-07 06:45 3.94897 73.49656 4463 ft 247 kts 85°
2026-05-07 06:45 3.95311 73.51289 4343 ft 244 kts 55°
2026-05-07 06:46 3.96483 73.52531 4004 ft 246 kts 32°
2026-05-07 06:46 3.98007 73.53130 3744 ft 231 kts
2026-05-07 06:46 3.99606 73.53109 3479 ft 224 kts 356°
2026-05-07 06:46 4.01157 73.53101 3192 ft 221 kts 358°
2026-05-07 06:47 4.02685 73.53105 2924 ft 216 kts 357°
2026-05-07 06:47 4.04167 73.53107 2702 ft 208 kts 357°
2026-05-07 06:47 4.05608 73.53107 2427 ft 196 kts 357°
2026-05-07 06:47 4.06901 73.53109 2172 ft 176 kts 357°
2026-05-07 06:48 4.08078 73.53109 1921 ft 162 kts 356°
2026-05-07 06:48 4.09206 73.53108 1706 ft 158 kts 356°
2026-05-07 06:48 4.10318 73.53106 1531 ft 160 kts 356°
2026-05-07 06:48 4.11447 73.53106 1318 ft 158 kts 356°
2026-05-07 06:49 4.12500 73.53107 1080 ft 145 kts 355°
2026-05-07 06:49 4.13460 73.53107 923 ft 129 kts 356°
2026-05-07 06:49 4.14376 73.53104 778 ft 133 kts 355°
2026-05-07 06:49 4.15350 73.53101 632 ft 141 kts 356°
2026-05-07 06:50 4.16333 73.53102 431 ft 139 kts 356°
2026-05-07 06:50 4.17311 73.53104 262 ft 138 kts 356°
2026-05-07 06:50 4.18284 73.53105 107 ft 138 kts 355°
2026-05-07 06:50 4.19244 73.53106 17 ft 133 kts 359°
2026-05-07 06:51 4.19980 73.53102 14 ft 60 kts 358°
2026-05-07 06:51 4.20261 73.53101 14 ft 21 kts 360°
2026-05-07 06:51 4.20334 73.53101 14 ft 1 kts 356°
2026-05-07 06:51 4.20343 73.53097 14 ft 1 kts 332°
2026-05-07 06:52 4.20360 73.53085 14 ft 4 kts 313°
2026-05-07 06:52 4.20373 73.53051 14 ft 5 kts 274°
2026-05-07 06:52 4.20372 73.53002 14 ft 7 kts 268°
2026-05-07 06:52 4.20370 73.52934 14 ft 14 kts 257°
2026-05-07 06:53 4.20267 73.52898 14 ft 18 kts 179°
2026-05-07 06:53 4.20130 73.52899 14 ft 19 kts 179°
2026-05-07 06:53 4.19991 73.52902 14 ft 20 kts 179°
2026-05-07 06:53 4.19847 73.52904 14 ft 21 kts 179°
2026-05-07 06:54 4.19696 73.52906 14 ft 21 kts 178°
2026-05-07 06:54 4.19542 73.52909 14 ft 22 kts 179°
2026-05-07 06:54 4.19383 73.52912 14 ft 23 kts 179°
2026-05-07 06:54 4.19224 73.52915 14 ft 17 kts 179°
2026-05-07 06:55 4.19099 73.52917 14 ft 18 kts 179°
2026-05-07 06:55 4.18975 73.52918 14 ft 15 kts 182°
2026-05-07 06:55 4.18919 73.52863 14 ft 5 kts 257°
2026-05-07 06:55 4.18917 73.52825 14 ft 4 kts 270°
2026-05-07 06:56 4.18917 73.52810 14 ft 2 kts 270°
2026-05-07 06:56 4.18917 73.52799 14 ft 1 kts 269°
2026-05-07 06:56 4.18917 73.52798 14 ft 0 kts 269°